This is the latest recevied weather packets stored in our database for station/object KB3FKJ. If no packets are shown the sender has not sent any weather packets the latest 10 day(s).
| Time | Temp. | Humidity | Pressure | Rain* | Wind** | Luminosity | Snow |
|---|---|---|---|---|---|---|---|
| 1777679801 | 7.78° C | 95% | 1010.8 hPa | 0 mm | - | 1 W/m² | - |
| 1777679497 | 7.78° C | 94% | 1010.7 hPa | 0 mm | - | 2 W/m² | - |
| 1777679192 | 7.78° C | 94% | 1010.9 hPa | 0 mm | - | 1 W/m² | - |
| 1777678890 | 7.78° C | 94% | 1010.8 hPa | 0 mm | - | 2 W/m² | - |
| 1777678588 | 7.78° C | 94% | 1010.8 hPa | 0 mm | - | 2 W/m² | - |
| 1777678285 | 7.78° C | 94% | 1010.7 hPa | 0 mm | - | 2 W/m² | - |
| 1777677981 | 7.78° C | 93% | 1010.7 hPa | 0 mm | - | 2 W/m² | - |
| 1777677679 | 7.78° C | 93% | 1010.7 hPa | 1.27 mm | - | 3 W/m² | - |
| 1777677376 | 7.78° C | 93% | 1010.7 hPa | 0 mm | - | 4 W/m² | - |
| 1777677074 | 7.78° C | 93% | 1010.9 hPa | 0 mm | - | 6 W/m² | - |
| 1777676773 | 7.78° C | 93% | 1010.8 hPa | 0 mm | - | 8 W/m² | - |
| 1777676471 | 7.78° C | 92% | 1010.9 hPa | 0 mm | - | 5 W/m² | - |
| 1777676168 | 7.78° C | 93% | 1010.6 hPa | 0 mm | - | 6 W/m² | - |
| 1777675864 | 7.78° C | 92% | 1010.8 hPa | 0 mm | - | 11 W/m² | - |
| 1777675561 | 8.33° C | 92% | 1010.6 hPa | 0 mm | - | 13 W/m² | - |
| 1777675258 | 8.33° C | 92% | 1010.7 hPa | 0 mm | - | 22 W/m² | - |
| 1777674954 | 7.78° C | 92% | 1010.5 hPa | 0 mm | - | 22 W/m² | - |
| 1777674651 | 7.78° C | 92% | 1010.5 hPa | 0 mm | - | 15 W/m² | - |
| 1777674358 | 8.33° C | 92% | 1010.4 hPa | 0 mm | - | 19 W/m² | - |
| 1777674045 | 8.33° C | 92% | 1010.4 hPa | 0 mm | - | 34 W/m² | - |
| 1777673740 | 8.33° C | 92% | 1010.4 hPa | 0 mm | - | 45 W/m² | - |
| 1777673438 | 8.33° C | 93% | 1010.5 hPa | 0 mm | - | 48 W/m² | - |
| 1777673136 | 8.33° C | 93% | 1010.7 hPa | 0 mm | - | 63 W/m² | - |
| 1777672832 | 8.33° C | 93% | 1010.5 hPa | 0 mm | - | 112 W/m² | - |
| 1777672528 | 7.78° C | 93% | 1010.8 hPa | 0 mm | - | 125 W/m² | - |
* Rain latest hour (hover to see other rain measurements)
** Current wind speed in m/s (hover to see current wind gust speed)